Flag for Canada Weather past 2 weeks in Pond Inlet, Nunavut, Canada

Now
23 °F

Light snow. Overcast.


Feels Like: 18 °F
Forecast: 11 / 21 °F
Wind: 3 mph from Northeast

Location: Pond Inlet

Current Time: May 24, 2015 at 2:30:55 AM

Latest Report: May 24, 2015 at 1:59 AM


Visibility: 5 mi

Pressure: 29.59 "Hg

Humidity: 93%

Dew point: 21 °F

Location of Pond InletLocation

Historic Weather in Pond Inlet — Graph

°F

Pond Inlet temperature yesterday

Maximum temperature yesterday: 25 °F (at 11:00 AM)
Minimum temperature yesterday: 14 °F (at 1:00 AM)
Average temperature yesterday: 21 °F

Past Weeks' High & Low Weather Summary

 TemperatureHumidityPressure
High27 °F (May 19, 2:00 PM)93% (May 14, 12:00 AM)30.25 "Hg (May 14, 12:00 AM)
Low1 °F (May 10, 12:03 AM)53% (May 16, 5:00 PM)29.59 "Hg (May 24, 1:00 AM)
Average16 °F81%29.86 "Hg
* Reported May 9 1:00 AM — May 24 1:00 AM, Pond Inlet, Weather by CustomWeather, © 2015

Note: Actual official high and low records may vary slightly from our data, if they occured in-between our weather recording intervals... More about our weather records

Advertising

Pond Inlet weather history for previous 24 hours

 ConditionsComfort  
Time TempWeatherWind HumidityBarometerVisibility
1:00 AM
Sun, May 24
23 °FLight snow. Overcast.5 mph93%29.59 "Hg2 mi
12:00 AM23 °FLight snow. Overcast.3 mph93%29.60 "Hg1 mi
11:00 PM
Sat, May 23
23 °FLight snow. Ice fog.No wind93%29.61 "Hg1 mi
10:00 PM23 °FLight snow. Overcast.2 mph93%29.62 "Hg1 mi
9:00 PM23 °FLight snow. Overcast.2 mph93%29.62 "Hg1 mi
8:00 PM23 °FLight snow. Ice fog.5 mph93%29.63 "Hg1 mi
7:00 PM23 °FLight snow. Overcast.2 mph93%29.64 "Hg1 mi
6:51 PM23 °FLight snow. Overcast.2 mph93%29.64 "Hg1 mi
6:00 PM23 °FLight snow. Mostly cloudy.3 mph93%29.64 "Hg2 mi
5:00 PM25 °FLight snow. Mostly cloudy.3 mph86%29.64 "Hg10 mi
4:00 PM25 °FSnow. Overcast.3 mph80%29.64 "Hg15 mi
3:00 PM25 °FLight snow. Mostly cloudy.3 mph80%29.65 "Hg15 mi
2:00 PM23 °FBroken clouds.5 mph86%29.65 "Hg30 mi
1:00 PM25 °FBroken clouds.5 mph69%29.66 "Hg9 mi
12:00 PM25 °FOvercast.No wind63%29.67 "Hg9 mi
11:00 AM25 °FPartly sunny.No wind63%29.68 "Hg9 mi
10:00 AM23 °FPassing clouds.No wind68%29.70 "Hg9 mi
9:00 AM21 °FSunny.3 mph74%29.70 "Hg9 mi
8:00 AM19 °FScattered clouds.6 mph73%29.72 "Hg9 mi
7:00 AM19 °FOvercast.8 mph73%29.72 "Hg9 mi
6:00 AM16 °FSunny.10 mph79%29.72 "Hg9 mi
5:00 AM14 °FSunny.10 mph79%29.73 "Hg9 mi
4:00 AM14 °FSunny.10 mph85%29.73 "Hg9 mi
3:00 AM14 °FBroken clouds.12 mph73%29.72 "Hg9 mi
2:00 AM14 °FPassing clouds.13 mph73%29.72 "Hg9 mi
Weather by CustomWeather, © 2015

See weather overviewHow to use our weather pages